This demonstration page uses our WeatherBlox Daily Observations layout. Learn more.

Left ArrowRight Arrow

39.12711, -84.51439

Hourly Observations for April 7, 2018

Temp ( °F °C ) Dew Point ( °F °C ) Humidity (%) Winds ( mph kmh ) Pressure ( in mb ) Visibility ( mi km ) Precip ( " mm )
12:49 am 00:49 Cloudy 34 1 28 -2 81 81 N 9 15 30.03 1017 7 11 0.00 0.03
12:53 am 00:53 Cloudy with Light Snow 33 0.6 29 -1.7 85 85 N 8 13 30.05 1018 6 10 0.00 0.03
1:03 am 01:03 Cloudy with Light Snow 33 0.6 29 -1.7 85 85 N 9 15 30.06 1018 3 4 0.00 0.03
1:27 am 01:27 Cloudy with Light Snow 32 0 30 -1.1 92 92 NNW 10 17 30.09 1019 2 3 0.01 0.25
1:53 am 01:53 Cloudy with Light Snow 31 -0.6 28 -2.2 89 89 NNE 18 30 30.06 1018 2 3 0.02 0.51
2:12 am 02:12 Cloudy with Light Snow 30 -1.1 26 -3.3 85 85 N 13 20 30.09 1019 2 3 0.00 0.03
2:32 am 02:32 Cloudy with Light Snow 30 -1.1 26 -3.3 85 85 NNE 16 26 30.09 1019 2 3 0.00 0.03
2:40 am 02:40 Cloudy with Light Snow 29 -1.7 26 -3.3 89 89 N 14 22 30.09 1019 2 2 0.00 0.03
2:53 am 02:53 Cloudy with Light Snow 29 -1.7 26 -3.3 89 89 N 12 19 30.07 1018 2 3 0.00 0.03
3:01 am 03:01 Cloudy with Light Snow 29 -1.7 26 -3.3 89 89 NNE 13 20 30.09 1019 3 4 0.00 0.03
3:09 am 03:09 Cloudy with Light Snow 29 -1.7 26 -3.3 89 89 N 10 17 30.09 1019 3 4 0.00 0.03
3:33 am 03:33 Cloudy with Light Snow 29 -1.7 26 -3.3 89 89 NNE 12 19 30.09 1019 4 6 0.00 0.03
3:53 am 03:53 Cloudy 30 -1.1 26 -3.3 85 85 NNE 5 7 30.06 1018 10 16 0.00 0.03
4:36 am 04:36 Cloudy with Light Snow 30 -1.1 26 -3.3 85 85 N 7 11 30.12 1020 2 3 0.00 0.03
4:48 am 04:48 Cloudy with Light Snow 30 -1 27 -3 86 86 N 7 11 30.12 1020 6 10 0.00 0.03
4:53 am 04:53 Cloudy 30 -1.1 26 -3.3 85 85 NNE 6 9 30.08 1019 8 13 0.00 0.03
5:53 am 05:53 Cloudy with Light Snow 30 -1.1 25 -3.9 82 82 N 9 15 30.09 1019 4 6 0.00 0.03
6:15 am 06:15 Cloudy with Light Snow 29 -1.7 25 -3.9 85 85 NNE 8 13 30.12 1020 2 3 0.00 0.03
6:26 am 06:26 Cloudy with Light Snow 29 -1.7 25 -3.9 85 85 N 8 13 30.12 1020 2 3 0.00 0.03
6:48 am 06:48 Cloudy with Light Snow 28 -2 27 -3 93 93 Calm 30.12 1020 3 5 0.01 0.25
6:53 am 06:53 Cloudy with Light Snow 29 -1.7 26 -3.3 89 89 Calm 30.10 1019 3 5 0.01 0.25
7:53 am 07:53 Cloudy 29 -1.7 26 -3.3 89 89 Calm 30.11 1020 10 16 0.00 0.03
8:53 am 08:53 Cloudy 31 -0.6 22 -5.6 69 69 N 9 15 30.12 1020 10 16 0.00 0.00
9:53 am 09:53 Cloudy 32 0 22 -5.6 66 66 N 10 17 30.14 1021 10 16 0.00 0.00
10:53 am 10:53 Cloudy 33 0.6 22 -5.6 64 64 NNE 9 15 30.14 1021 10 16 0.00 0.00
11:53 am 11:53 Partly Cloudy 36 2.2 22 -5.6 57 57 NNE 7 11 30.13 1020 10 16 0.00 0.00
12:53 pm 12:53 Partly Cloudy 36 2.2 20 -6.7 52 52 ENE 7 11 30.11 1020 10 16 0.00 0.00
1:53 pm 13:53 Partly Cloudy 39 3.9 22 -5.6 50 50 VRB 6 9 30.10 1019 10 16 0.00 0.00
2:53 pm 14:53 Mostly Sunny 41 5 20 -6.7 43 43 NW 8 13 30.09 1019 10 16 0.00 0.00
3:53 pm 15:53 Sunny 42 5.6 18 -7.8 38 38 NNE 6 9 30.07 1018 10 16 0.00 0.00
4:53 pm 16:53 Mostly Sunny 43 6.1 19 -7.2 38 38 NW 5 7 30.06 1018 10 16 0.00 0.00
5:53 pm 17:53 Partly Cloudy 43 6.1 20 -6.7 40 40 NNW 9 15 30.05 1018 10 16 0.00 0.00
6:53 pm 18:53 Mostly Sunny 42 5.6 20 -6.7 41 41 N 14 22 30.04 1017 10 16 0.00 0.00
7:53 pm 19:53 Mostly Sunny 39 3.9 20 -6.7 46 46 N 8 13 30.05 1018 10 16 0.00 0.00
8:53 pm 20:53 Clear 36 2.2 20 -6.7 52 52 N 7 11 30.06 1018 10 16 0.00 0.00
9:53 pm 21:53 Clear 37 2.8 19 -7.2 48 48 NW 5 7 30.08 1019 10 16 0.00 0.00
10:53 pm 22:53 Clear 35 1.7 21 -6.1 57 57 NW 3 6 30.08 1019 10 16 0.00 0.00
11:53 pm 23:53 Clear 35 1.7 20 -6.7 54 54 NNW 8 13 30.07 1018 10 16 0.00 0.00

Powered by AerisWeather